CZ-6A DEB, 56251

Orbit data source: Space-Track

CZ-6A DEB, 56251 is space debris in SSO originally from a launch on Fri, 11 Nov 2022 UTC launched from the Taiyaun Space Center, China (TSC). Debris objects in space refer to the collection of defunct objects orbiting the Earth. Examples of debris include non-operational satellites, rocket bodies, and fragments generated from explosions, collisions, or faulty payload assembly.

Loading next visibility...
Identifier
56251, 2022-151ABT
Orbit
SSO
Country
Flag of CNCN / PRC
Related business
Manufacturer
SAST
Mission
Spacecraft
Bus & Motor
Unknown
Mass
Unknown
Launch date (UTC)
2022-11-11 (4 years ago)
Launch vehicle
Unknown
Launch site
Taiyaun Space Center, China (TSC)
Object type
Payload
Rocket body
Debris
Shape & HBR
Unknown shape, 0.1 m
Radar Cross Section
Medium (>0.1 m² and <1 m²)

Expand to show TLE details & history
Last TLE update: 14 hours ago

TLE from 14 hours ago
0 CZ-6A DEB
1 56251U 22151ABT 26236.42749393  .00000088  00000-0  76979-4 0  9998
2 56251  98.8627 229.2822 0063878 182.2864 177.8022 14.06992364176196
Epoch: 2026-08-24T10:15Z
TLE epoch observation values (Epoch: 2026-08-24T10:15:35.475Z)
Latitude
-0.00002°
Longitude
102.67504°
Altitude
918.847 km
Speed
7.369 km/s
True Right ascension
15h 17m 07s
True Declination
0° 00' 00"
Sunlit
Object was in daylight at epoch
Visualization orbit readout
Latitude
Unknown
Longitude
Unknown
Altitude
Unknown
Speed
Unknown
Apparent Right ascension
Unknown
Apparent Declination
Unknown
Sunlit
N/A
Visualization observer readout
Local Sidereal Time
15:07:29
Azimuth
Unknown
Elevation
Unknown
Doppler factor
Unknown
Orbital elements
Apogee altitude
913.145 km
Perigee altitude
820.586 km
Semi-major axis
7,245.002 km
Eccentricity
0.00639
Inclination
98.8627°
RAAN
229.2822°
Arg. of periapsis
182.2864°
True anomaly
177.83005°
Mean anomaly
177.8022°
Eccentric anomaly
177.81615°
Mean motion
3.51954 °/min
Orbital period
102.29 mins
BSTAR
0.000076979
Loading maneuver chart data...
Computing Atmospheric mass density...
Loading historical data...
Loading historical data...
Loading historical data...
Loading historical data...
Loading historical data...
Loading historical data...
Loading historical data...

Documentation

Showing up to 5 results
|